This is the latest recevied weather packets stored in our database for station/object LA9TLA-1. If no packets are shown the sender has not sent any weather packets the latest 10 day(s).
| Time | Temp. | Humidity | Pressure | Rain* | Wind** | Luminosity | Snow |
|---|---|---|---|---|---|---|---|
| 1778230665 | 11.67° C | 12% | 1030.5 hPa | 0 mm | - | - | - |
| 1778227063 | 10.56° C | 12% | 1030.4 hPa | 0 mm | - | - | - |
| 1778225263 | 10° C | 12% | 1030.1 hPa | 0 mm | - | - | - |
| 1778223464 | 9.44° C | 16% | 1030 hPa | 0 mm | - | - | - |
| 1778221662 | 8.89° C | 48% | 1029.9 hPa | 0 mm | - | - | - |
| 1778219861 | 7.78° C | 79% | 1029.8 hPa | 0 mm | - | - | - |
| 1778216265 | 6.67° C | 99% | 1029.1 hPa | 0 mm | - | - | - |
| 1778214464 | 6.67° C | 99% | 1029 hPa | 0 mm | - | - | - |
| 1778212664 | 6.67° C | 99% | 1028.8 hPa | 0 mm | - | - | - |
| 1778210864 | 6.67° C | 99% | 1028.8 hPa | 0 mm | - | - | - |
| 1778209064 | 6.11° C | 99% | 1028.5 hPa | 0 mm | - | - | - |
| 1778207263 | 5° C | 99% | 1028.6 hPa | 0 mm | - | - | - |
| 1778205465 | 4.44° C | 99% | 1028.5 hPa | 0 mm | - | - | - |
| 1778203666 | 5° C | 99% | 1028.3 hPa | 0 mm | - | - | - |
| 1778201863 | 5° C | 82% | 1028.3 hPa | 0 mm | - | - | - |
| 1778198263 | 5.56° C | 43% | 1028.3 hPa | 0 mm | - | - | - |
| 1778196465 | 5.56° C | 35% | 1028.3 hPa | 0 mm | - | - | - |
| 1778194666 | 5.56° C | 17% | 1028.5 hPa | 0 mm | - | - | - |
| 1778192863 | 6.11° C | 10% | 1028.3 hPa | 0 mm | - | - | - |
| 1778191065 | 6.11° C | 10% | 1028.1 hPa | 0 mm | - | - | - |
| 1778189264 | 6.67° C | 10% | 1028 hPa | 0 mm | - | - | - |
| 1778185663 | 7.22° C | 10% | 1028 hPa | 0 mm | - | - | - |
| 1778183865 | 7.78° C | 10% | 1027.6 hPa | 0 mm | - | - | - |
| 1778182066 | 8.33° C | 10% | 1027.5 hPa | 0 mm | - | - | - |
| 1778178464 | 11.67° C | 10% | 1027 hPa | 0 mm | - | - | - |
* Rain latest hour (hover to see other rain measurements)
** Current wind speed in m/s (hover to see current wind gust speed)